GFSSW_250_rhum_234.txt.gz
RH
99 96 85 92 86 53 38 35 60 64 100 100 60 93 69 54 72 74 58 65 44 39 32 28 18 16 14 12 13 16 21 23 30 41 27 18 14 39 73 53 42 32 26 17 21
100 93 84 100 100 96 66 41 41 71 100 100 97 99 91 49 80 83 77 55 55 42 38 31 28 19 16 14 14 16 19 25 35 36 33 22 17 17 33 95 72 55 40 35 23
100 99 95 99 99 100 84 55 46 66 98 100 100 100 81 49 86 100 46 84 52 59 39 37 32 28 20 16 17 18 22 29 42 46 39 28 21 16 21 27 100 82 72 43 29
100 95 100 100 100 89 100 74 47 48 90 100 100 100 94 88 94 87 57 88 71 70 48 46 37 32 26 19 19 20 22 30 45 51 40 33 27 20 19 21 69 93 91 86 51
97 91 91 100 100 82 92 100 65 47 71 84 100 100 100 100 63 72 66 82 100 61 50 52 48 39 33 25 22 22 22 24 44 58 53 41 31 23 18 26 81 52 81 100 94
100 100 87 100 100 68 100 100 68 49 50 84 100 100 100 99 92 98 68 70 84 65 59 53 56 48 41 31 28 26 24 25 31 57 67 48 35 26 20 22 91 98 63 100 100
100 100 100 100 100 100 100 100 89 88 52 81 98 93 100 100 100 97 89 67 72 94 65 62 60 50 48 38 31 32 27 27 37 50 61 54 39 29 24 27 21 19 96 66 91
100 99 100 98 100 100 100 100 98 94 80 96 82 100 88 100 100 100 100 93 99 75 100 77 68 62 47 43 30 32 27 24 34 60 47 58 54 44 33 26 25 18 16 37 88
100 100 100 100 100 100 84 100 86 83 92 74 88 100 100 98 98 60 100 92 93 99 100 86 66 59 48 52 33 34 31 26 26 62 56 65 55 39 45 33 31 23 18 15 31
99 81 100 100 100 100 100 100 98 99 97 74 50 100 100 99 73 99 100 100 97 100 78 100 92 80 56 64 44 38 36 28 24 32 88 64 49 43 51 41 33 28 21 19 15
100 100 94 100 99 91 100 90 100 80 100 100 74 52 100 100 89 100 100 99 100 100 100 100 96 84 52 61 55 45 38 30 25 33 55 60 66 55 47 47 42 34 29 22 18
100 100 100 100 100 100 100 100 100 100 96 83 68 77 85 100 100 96 100 99 100 100 92 100 100 88 56 55 67 51 43 34 29 29 49 63 73 62 54 52 48 46 33 32 30
100 100 100 100 97 100 100 100 97 99 90 100 76 62 63 81 98 100 100 91 100 100 95 100 100 90 63 66 69 64 48 39 30 25 45 62 76 75 72 63 53 56 36 39 38
100 100 100 100 100 100 96 99 100 94 87 100 84 65 88 71 97 100 100 100 99 100 100 100 97 91 76 62 72 67 53 51 38 29 34 52 65 67 73 74 72 63 48 47 53
100 100 100 100 100 100 100 100 100 97 88 100 86 74 81 67 88 100 100 100 100 100 100 100 100 97 98 66 76 73 59 52 43 34 36 52 50 92 72 68 87 79 64 56 65
100 100 100 100 100 100 100 100 100 100 73 83 100 88 96 85 92 100 100 100 100 100 100 100 100 97 100 86 74 88 67 65 46 38 37 42 39 100 93 69 74 78 60 78 80
100 100 100 99 100 100 100 100 100 100 100 82 100 92 95 100 91 98 100 100 97 100 100 100 100 100 100 91 74 86 84 62 52 47 35 32 51 84 50 57 39 63 48 74 81
100 100 100 100 100 100 100 100 85 86 96 99 97 85 99 100 100 100 100 100 100 100 100 100 100 100 100 91 67 93 99 86 71 73 56 44 83 100 86 56 71 54 57 99 82
100 100 100 100 100 100 100 98 90 100 100 74 84 93 100 100 100 100 100 100 100 100 100 100 97 80 91 87 78 75 91 95 80 70 65 90 92 97 87 76 83 63 65 86 100
100 100 100 100 100 100 100 100 100 100 99 100 77 99 100 100 100 100 100 100 100 100 100 100 100 100 100 85 100 80 83 96 90 69 65 85 100 100 100 86 93 100 89 83 88
64 100 100 100 100 100 100 100 100 100 100 100 94 97 100 100 100 100 100 100 100 100 100 100 100 100 99 83 94 93 84 94 87 78 71 61 92 100 100 100 94 86 82 84 100
52 92 100 100 100 100 100 100 100 100 100 100 83 100 100 100 100 100 100 100 100 100 100 100 100 100 100 87 80 100 100 84 73 91 76 65 64 100 100 100 100 78 84 66 50
45 87 100 100 100 98 100 100 100 100 100 100 75 100 100 100 100 100 100 100 100 100 100 100 100 96 87 94 100 100 100 89 79 87 74 99 94 100 99 100 100 100 99 85 87
59 76 79 78 100 100 100 100 100 100 100 100 98 100 100 100 100 100 99 100 100 100 100 100 100 99 79 88 89 98 100 81 64 93 79 60 90 100 100 92 100 94 100 84 79
62 70 67 64 51 100 100 100 100 100 99 100 100 100 100 100 100 90 99 100 100 100 100 100 98 94 87 99 100 91 100 94 69 90 85 68 72 100 100 100 90 85 100 100 100
83 37 46 65 77 70 80 98 85 90 100 100 100 100 100 100 100 100 100 100 100 100 100 100 88 100 88 94 100 86 100 88 71 100 79 64 48 100 100 100 100 100 100 100 100
45 66 42 66 81 69 77 77 67 76 98 100 100 100 100 100 100 100 100 100 99 89 94 93 98 100 80 100 100 72 98 100 80 82 82 80 61 94 92 98 100 100 100 100 100

GFSSW_250_rhum_237.txt.gz
RH
99 100 98 92 97 100 63 80 98 97 74 50 50 54 86 100 100 59 58 89 38 29 44 39 33 34 30 31 19 15 15 16 18 34 44 31 22 16 14 44 71 39 46 24 13
100 100 100 79 100 96 92 81 100 100 99 84 47 47 69 93 100 81 98 74 59 45 52 39 34 36 30 28 28 19 18 17 19 22 36 36 29 19 15 15 42 85 67 46 28
100 100 100 98 100 100 100 56 100 97 100 100 53 47 57 72 100 100 100 79 83 70 39 36 36 33 31 31 33 25 21 20 20 22 33 50 36 26 17 16 16 100 99 50 78
100 100 100 100 100 99 97 100 52 100 100 100 97 72 56 46 66 100 100 85 100 70 70 53 53 30 32 30 29 30 24 21 23 22 28 35 43 30 21 18 17 18 70 52 98
100 93 98 100 100 96 100 92 88 100 100 100 87 81 60 48 63 100 100 90 100 91 94 71 44 58 33 33 29 28 28 21 22 24 27 34 38 38 27 20 20 22 54 54 100
83 100 92 100 100 88 96 100 91 100 100 100 87 83 86 56 70 90 100 77 96 100 64 83 50 96 46 38 34 27 28 26 23 23 23 33 46 46 39 28 22 18 18 90 77
96 100 98 94 100 100 92 83 100 95 87 100 99 70 100 77 60 81 99 100 100 98 68 97 56 67 64 48 52 32 28 31 28 26 22 30 36 53 47 34 27 26 22 15 18
86 100 100 89 87 99 100 63 100 100 83 100 100 88 94 100 67 97 100 100 100 100 97 100 90 63 70 76 74 56 34 32 31 27 25 26 24 41 51 50 44 33 26 21 14
66 79 90 74 100 87 88 87 84 100 91 96 100 100 78 100 74 94 66 100 100 100 94 100 100 74 69 83 83 73 37 32 30 34 28 26 25 26 51 58 48 41 36 24 20
92 92 89 99 69 99 87 96 100 97 100 97 88 90 81 100 67 95 90 76 100 100 99 100 100 99 75 74 86 68 50 34 32 37 33 26 29 25 43 55 48 49 40 35 28
100 100 88 85 91 58 96 79 100 100 95 96 76 100 74 100 100 100 68 63 75 100 100 100 100 100 89 100 93 70 67 46 30 31 41 30 24 27 31 55 59 55 49 46 35
100 100 100 100 94 81 73 75 89 100 100 99 88 100 99 89 100 100 92 84 58 87 100 100 100 100 97 100 92 85 94 66 39 30 35 33 27 23 26 49 61 62 64 50 46
91 100 97 98 100 91 78 100 66 61 71 100 99 100 94 68 100 100 100 79 65 88 91 100 100 99 96 100 100 100 89 74 66 36 40 39 32 26 24 32 41 64 68 72 60
100 96 94 100 100 100 100 100 100 100 68 100 73 100 96 53 99 100 97 97 73 99 79 100 100 92 100 100 100 100 87 90 75 52 52 56 36 30 24 24 34 55 75 69 61
100 100 89 79 100 100 100 100 94 100 79 95 99 90 92 80 100 100 100 97 85 73 85 90 100 100 100 100 100 94 96 97 85 65 58 64 46 35 30 23 28 45 84 56 60
100 100 100 100 100 100 100 100 99 97 79 90 100 100 96 74 99 100 100 99 98 82 82 92 100 100 100 100 100 100 98 80 90 71 70 60 63 52 41 31 24 42 88 68 80
100 100 100 100 100 100 100 100 100 84 97 89 100 100 100 82 82 100 100 100 100 99 99 97 100 100 100 100 100 100 94 88 86 77 67 61 73 64 54 42 26 41 58 89 100
100 100 100 100 100 100 100 100 78 76 94 100 100 99 82 87 98 100 100 100 100 100 100 100 100 100 100 100 100 100 100 99 70 84 72 62 80 80 65 46 49 43 67 60 86
100 100 100 100 100 100 100 95 76 88 100 100 96 98 100 99 100 100 100 100 100 100 100 90 80 99 100 100 100 100 99 88 76 82 78 83 73 70 71 60 68 77 46 44 88
100 100 100 100 100 100 100 80 89 93 100 100 99 100 100 100 100 100 100 100 100 100 100 100 92 100 100 100 100 100 93 76 78 85 98 84 90 88 72 64 70 98 100 96 33
98 100 100 100 100 100 92 88 100 99 100 98 100 100 100 100 100 100 100 100 100 100 100 100 96 100 86 96 100 100 96 94 82 70 84 94 100 100 82 65 73 100 100 100 95
12 98 100 100 100 99 94 100 100 100 100 99 100 100 100 100 100 100 100 100 100 100 100 100 95 98 100 91 100 100 100 90 64 92 93 100 99 100 100 81 72 100 100 100 100
14 18 80 100 100 100 100 100 100 100 100 99 97 100 100 100 100 100 100 100 100 100 100 100 91 94 97 98 100 100 100 84 90 86 79 89 100 100 100 94 100 86 73 96 96
18 24 31 55 95 100 100 100 100 100 100 100 100 99 86 100 100 100 100 100 100 100 100 100 100 96 94 100 100 100 100 98 90 62 72 100 100 100 100 100 100 85 74 85 100
18 16 24 20 25 55 100 100 100 100 100 100 100 100 100 100 100 100 100 100 100 100 100 100 100 100 99 78 89 100 100 100 90 92 84 100 75 100 100 100 97 96 96 99 96
12 13 14 10 56 63 93 100 100 100 100 100 100 100 100 100 100 100 100 100 100 100 100 99 88 100 96 100 100 97 100 89 94 98 72 87 93 100 97 99 98 100 93 78 88
10 12 16 15 27 29 36 100 100 100 100 100 100 100 100 100 100 100 100 100 100 89 80 92 100 100 100 100 100 86 100 100 81 76 96 88 100 100 100 100 100 100 84 75 88

GFSSW_250_rhum_243.txt.gz
RH
68 78 94 97 78 100 100 99 95 100 92 60 100 95 59 100 83 50 64 99 81 68 54 46 67 100 100 77 66 31 26 21 20 24 29 29 27 32 22 21 16 14 36 38 39
67 65 80 96 100 99 83 100 100 95 94 99 100 84 86 93 100 65 47 100 86 76 60 59 67 85 100 93 94 70 29 27 18 21 23 27 31 27 32 19 20 14 18 42 40
68 91 62 79 95 100 100 93 100 100 97 100 100 71 100 74 100 79 76 88 98 87 74 65 88 63 68 96 100 85 42 36 25 19 19 25 27 27 27 27 32 21 18 18 36
62 67 94 70 76 85 100 85 100 100 100 89 91 88 100 73 98 100 100 61 100 76 91 68 74 57 63 100 74 72 58 59 35 25 19 21 27 29 29 28 32 31 22 18 18
100 76 75 98 72 78 87 98 100 100 100 100 81 81 67 87 74 100 98 73 100 99 100 98 90 80 89 100 76 60 87 72 52 28 20 20 20 29 32 27 29 33 30 22 16
85 100 74 56 87 70 83 78 90 96 100 100 100 100 100 80 60 90 100 99 100 100 100 98 100 49 98 93 94 52 79 70 66 44 33 19 34 20 29 32 27 34 40 28 23
94 98 100 84 54 86 70 78 72 79 94 100 100 100 100 100 96 71 99 100 100 100 98 100 81 99 100 94 85 64 55 80 81 50 50 27 32 28 21 32 28 27 40 46 27
100 88 100 100 69 92 77 64 79 74 63 100 100 100 100 100 100 86 100 100 87 100 100 92 100 100 100 100 86 70 72 68 91 66 64 49 31 36 20 26 27 30 28 38 42
96 98 95 100 97 87 83 77 61 79 84 96 100 100 100 100 100 91 74 99 89 98 100 76 100 100 77 100 96 83 82 94 75 82 73 68 53 38 39 29 30 25 30 31 49
100 100 98 100 98 97 86 88 70 78 90 88 66 83 100 96 100 100 98 94 82 100 77 100 100 100 100 100 97 84 95 100 78 99 97 90 72 48 32 48 43 32 27 33 29
100 100 100 100 99 91 81 100 78 66 70 100 93 92 97 100 100 100 95 90 77 100 83 53 74 99 93 100 77 100 100 100 100 82 99 100 66 65 41 56 48 43 40 34 34
100 100 100 92 100 100 79 77 100 69 85 92 97 100 100 100 100 94 100 100 94 94 91 87 55 60 68 84 100 100 100 100 100 100 100 95 64 97 51 68 58 53 49 38 35
100 100 100 100 98 100 100 95 92 98 76 90 89 85 100 100 100 100 100 100 100 100 100 95 93 74 86 68 100 100 100 100 100 100 100 90 88 100 61 70 62 66 62 53 37
100 100 100 100 98 99 96 100 85 95 67 80 80 68 82 90 97 100 100 95 95 100 81 100 100 100 76 80 69 91 100 100 100 100 96 77 98 88 84 80 62 83 70 65 50
100 100 100 100 99 92 100 100 82 84 80 95 65 91 96 76 93 97 100 79 87 100 90 100 100 98 100 100 94 100 100 99 100 99 98 92 86 96 91 71 78 77 73 72 69
99 100 100 100 100 100 100 100 83 92 60 45 71 65 96 78 84 100 67 79 94 95 98 100 100 100 100 82 80 96 100 90 79 97 94 94 89 100 93 66 87 65 73 88 71
100 100 97 94 100 100 100 100 100 68 72 72 68 98 91 95 95 81 78 57 70 78 100 100 85 97 85 82 88 95 87 86 100 100 100 100 99 100 92 70 86 86 78 78 72
46 100 100 100 100 100 100 100 100 79 88 99 99 100 100 94 98 100 94 72 57 78 83 100 100 100 94 79 97 92 100 100 100 100 100 100 100 100 92 69 89 100 86 71 64
12 12 62 100 100 100 100 100 100 76 97 100 100 94 78 78 70 96 100 83 82 71 93 100 95 100 100 100 100 100 79 100 100 100 100 100 100 98 95 78 81 88 86 66 66
11 11 11 21 90 100 100 100 89 94 100 100 100 100 100 100 100 88 89 90 83 82 95 100 100 100 100 100 93 70 87 93 100 100 100 100 90 94 100 99 76 82 68 86 81
8 9 11 12 13 68 100 100 96 100 100 100 100 100 92 100 94 95 88 93 91 98 100 98 100 100 100 98 100 91 94 94 100 100 100 100 71 100 100 100 100 90 58 69 85
7 7 10 10 11 11 20 75 100 100 100 100 100 98 99 99 100 100 100 100 100 100 100 100 100 94 100 93 81 89 90 99 100 100 99 84 89 94 100 100 100 96 100 95 100
7 6 8 10 9 10 10 8 20 98 100 100 100 100 100 100 100 100 100 100 100 100 100 100 100 100 99 100 93 97 100 100 100 100 82 92 89 96 100 100 100 88 80 78 66
5 8 9 8 8 9 9 8 7 10 100 100 100 100 100 100 100 100 100 100 100 100 100 100 100 92 88 94 82 100 100 96 100 100 90 78 87 100 100 100 100 86 80 63 94
4 5 9 7 7 7 8 7 7 8 8 72 100 100 100 100 100 100 100 100 100 100 100 100 100 95 93 95 98 100 100 100 90 98 84 93 89 100 100 100 96 81 74 57 95
3 4 7 6 8 7 7 7 7 8 8 10 70 100 100 100 100 100 100 100 100 100 100 100 100 100 87 95 100 100 100 99 94 88 79 90 100 100 100 100 100 89 74 63 100
3 4 6 6 7 6 6 7 7 8 8 10 14 39 90 100 100 100 100 100 100 100 99 100 98 100 100 100 100 99 100 100 100 99 89 84 64 82 100 100 96 85 53 81 100

GFSSW_250_rhum_246.txt.gz
RH
99 70 76 92 84 89 81 100 82 98 100 100 100 100 93 70 100 74 83 100 94 71 89 89 65 64 46 67 99 94 53 45 47 36 21 22 22 22 25 25 28 26 18 17 17
100 100 72 81 75 97 85 87 79 92 74 100 100 100 100 86 97 100 99 96 100 99 73 100 99 81 76 71 100 71 57 62 61 45 36 24 29 20 25 22 22 31 21 21 15
100 100 100 98 58 67 92 83 81 97 100 86 78 99 100 100 100 89 89 79 77 100 95 90 100 100 91 59 97 86 58 52 72 45 40 34 26 31 22 27 23 23 33 24 23
94 100 100 98 100 65 62 84 93 92 80 98 100 74 81 100 100 86 65 43 49 99 100 98 100 100 100 65 98 83 75 60 58 60 43 41 28 31 28 24 25 25 22 28 30
100 100 100 100 100 100 82 51 67 82 98 89 99 96 78 84 96 100 99 67 64 68 80 100 100 100 100 87 90 70 79 90 67 60 64 42 31 35 31 38 38 28 26 25 34
100 100 100 100 97 100 100 92 68 56 89 85 93 95 99 91 100 100 100 91 96 92 48 100 100 100 99 100 100 99 56 100 77 61 68 72 43 33 32 40 44 37 31 27 27
100 100 100 100 100 100 100 100 100 64 62 68 73 97 91 100 95 100 99 100 100 100 79 71 95 98 100 94 100 100 72 100 79 74 80 73 55 47 40 39 54 46 44 37 29
85 90 100 100 100 100 100 100 97 90 74 74 40 54 89 87 92 92 93 100 98 100 100 75 52 100 97 100 100 100 95 88 70 76 100 83 57 68 54 49 64 49 38 52 46
90 80 99 93 99 95 100 100 100 87 76 79 83 48 74 89 84 79 89 97 98 84 78 88 75 68 82 79 100 100 98 100 90 78 100 100 86 62 79 62 53 56 49 43 60
100 98 100 92 98 93 92 100 100 100 93 88 71 84 54 76 85 62 80 97 100 100 89 95 80 91 55 98 77 77 100 100 88 85 100 100 96 84 71 81 53 64 61 43 45
90 100 100 100 100 98 100 100 100 85 100 87 98 100 91 62 96 72 73 73 85 100 94 100 100 100 100 97 99 72 68 99 92 94 100 100 100 100 63 95 68 63 76 56 37
100 100 92 100 99 100 99 100 100 100 88 100 90 98 87 82 80 87 63 80 72 89 100 94 100 100 100 100 100 100 100 100 100 99 98 100 100 100 77 66 68 58 100 76 49
100 100 100 100 93 100 100 100 100 100 100 77 84 92 100 88 87 62 96 63 87 65 100 100 100 100 100 100 95 100 100 100 100 100 100 100 100 100 95 62 77 65 100 88 78
100 100 100 100 100 100 99 100 100 100 100 98 67 91 100 98 96 91 61 98 72 88 65 75 100 100 97 99 87 99 100 100 100 100 100 100 100 100 100 95 99 87 95 98 91
100 100 100 100 100 100 100 100 86 90 83 100 100 100 100 94 95 96 71 92 84 82 81 71 87 88 100 100 100 100 100 98 100 100 99 98 99 100 100 100 100 100 100 100 86
100 100 100 100 100 100 100 100 100 93 74 80 100 100 100 100 100 100 79 70 97 95 96 89 93 100 100 100 100 100 98 91 100 100 64 100 74 100 100 100 100 100 100 100 100
95 100 100 100 100 100 100 100 100 100 92 92 74 93 95 100 100 100 100 72 78 100 82 100 100 100 100 100 100 98 100 90 80 98 100 94 79 100 100 100 100 100 100 100 97
16 99 100 100 100 100 100 100 100 100 89 100 100 90 84 100 90 100 99 71 81 84 100 100 100 100 100 100 100 100 74 71 94 89 100 98 100 100 100 100 100 100 100 100 90
12 12 20 100 100 100 100 100 100 100 93 100 100 100 100 93 70 67 72 75 86 91 100 97 82 100 100 100 100 100 93 100 84 86 64 99 100 100 100 100 98 98 100 100 95
10 11 12 14 39 100 100 100 100 98 100 100 96 100 91 96 100 100 96 80 81 99 100 100 100 100 100 100 100 100 100 98 71 54 73 69 100 100 100 100 98 100 100 99 84
10 10 11 14 15 14 23 94 100 99 100 100 100 100 97 100 98 85 89 75 75 90 100 100 100 100 100 100 100 100 96 98 96 76 68 69 100 100 100 100 100 100 100 98 75
14 10 10 13 13 12 11 13 16 49 100 100 100 100 100 100 100 100 79 95 100 100 90 95 100 98 97 100 100 78 70 82 87 78 97 54 94 90 100 100 100 100 100 100 79
8 10 13 12 10 9 9 12 14 11 9 79 100 100 100 100 100 100 100 100 100 100 96 94 96 82 82 83 82 86 95 100 100 100 91 55 69 82 100 100 100 100 100 100 96
3 5 8 12 11 9 8 9 10 12 9 10 28 100 100 100 100 100 100 100 100 100 100 100 100 86 76 97 100 98 100 95 91 80 88 75 97 90 100 100 100 100 100 100 80
2 2 3 6 7 10 10 8 10 10 9 10 12 14 100 100 100 99 100 100 100 100 100 100 100 100 94 89 89 99 99 96 89 88 75 75 86 77 100 100 100 100 98 83 84
1 1 2 3 4 7 10 10 8 9 9 10 10 12 15 99 100 100 100 100 100 100 100 100 100 100 100 98 100 100 100 87 76 82 86 100 77 78 100 100 100 100 84 97 100
2 2 2 2 2 4 6 8 9 10 8 9 10 12 11 12 92 100 100 100 100 100 100 100 100 100 98 100 100 97 75 82 81 76 95 81 69 93 99 100 100 100 76 74 100

GFSSW_250_rhum_249.txt.gz
RH
100 100 80 79 99 66 54 91 100 100 100 94 98 78 92 97 100 100 100 77 100 85 60 85 100 100 100 100 83 95 63 44 83 49 46 41 34 25 26 24 30 21 20 22 23
100 100 100 100 78 100 83 59 85 100 100 100 100 98 78 82 76 89 100 100 100 60 49 64 100 99 100 100 100 100 89 59 74 64 45 43 39 38 32 33 33 29 28 24 23
100 100 100 100 100 99 81 98 67 76 99 100 100 86 100 100 93 92 54 81 92 87 58 49 64 80 100 95 64 99 100 67 65 78 45 59 55 36 42 44 38 41 27 34 32
100 100 100 100 100 100 100 82 98 94 66 68 98 100 100 86 100 100 92 60 94 66 67 77 75 86 100 100 100 98 95 100 92 65 73 60 68 62 50 45 59 39 43 30 28
96 94 100 100 100 100 100 100 64 98 100 71 64 77 88 71 99 100 100 100 69 89 66 100 87 95 77 91 100 100 100 100 90 71 72 74 83 77 74 69 49 58 39 46 32
74 89 92 90 87 96 100 100 99 65 100 96 79 62 56 59 78 98 100 100 100 100 93 77 94 74 70 82 85 86 100 100 100 85 98 79 59 99 83 85 76 67 49 35 51
100 87 82 98 88 89 82 100 100 99 57 100 99 99 86 68 41 72 92 100 100 100 100 100 96 100 69 86 67 66 100 86 100 100 100 100 47 100 100 88 85 60 44 37 35
100 98 99 89 96 99 100 100 98 77 100 100 100 100 100 86 79 57 50 42 44 90 100 100 100 99 74 55 70 79 60 100 89 77 87 100 77 96 99 100 100 81 52 42 36
90 87 82 83 84 95 78 88 96 98 94 76 98 95 100 100 93 54 62 53 42 42 45 100 100 100 100 82 70 90 78 79 100 100 99 87 100 83 73 100 100 81 98 76 58
60 85 76 77 74 85 88 77 73 79 84 100 97 100 96 89 100 92 89 69 61 47 36 46 100 100 100 95 89 100 100 100 100 100 100 100 100 88 82 100 100 95 89 100 88
68 79 81 73 69 72 86 82 66 63 87 100 92 92 100 100 100 97 88 79 86 59 38 34 93 100 91 100 92 87 96 100 100 100 100 100 100 100 100 100 100 100 92 99 94
100 82 72 70 89 91 88 94 80 82 68 73 82 90 100 100 98 100 83 90 68 98 89 66 52 89 100 100 100 97 90 84 96 100 100 100 100 100 100 100 100 100 100 91 100
100 100 100 92 84 75 83 94 92 98 89 97 77 65 77 81 92 100 94 86 70 91 90 72 63 49 100 100 100 100 91 80 76 100 100 100 100 100 100 100 100 80 94 92 100
100 100 100 100 98 92 89 79 95 93 98 92 100 92 97 98 81 100 100 94 95 85 89 84 92 97 74 81 100 100 98 91 91 98 100 100 100 100 100 100 100 98 90 88 100
96 93 97 77 78 85 88 86 84 83 90 79 91 91 100 98 99 100 100 96 83 96 93 73 75 82 95 86 87 100 100 100 100 90 91 100 100 100 100 100 100 100 98 95 98
100 96 96 99 97 99 100 100 100 85 65 54 70 80 87 96 100 100 100 100 100 100 90 76 80 100 64 100 92 100 100 100 100 93 90 100 100 100 100 100 100 100 100 96 90
100 100 100 100 100 100 100 100 100 99 76 86 96 95 98 90 90 90 100 100 100 100 95 100 100 100 99 100 91 90 94 100 96 99 98 100 95 100 100 100 100 100 98 99 100
100 100 100 100 100 100 100 100 100 100 75 86 100 99 98 100 100 100 100 97 92 97 97 97 99 95 94 99 100 100 81 84 100 100 97 88 97 100 100 100 100 97 100 100 100
14 19 44 60 92 100 100 100 96 100 91 99 100 100 94 100 100 100 100 100 100 86 77 85 98 100 100 100 100 100 79 84 86 84 88 99 100 100 100 100 100 100 100 95 72
18 16 14 13 13 17 36 80 100 91 100 100 100 100 100 100 100 100 100 100 100 92 96 79 78 100 100 97 92 100 100 95 100 100 100 98 87 80 88 100 100 100 100 95 72
19 20 18 16 15 14 13 12 12 25 60 76 93 100 100 100 100 100 94 100 95 96 100 100 100 90 87 93 97 100 86 88 96 93 84 83 72 100 93 82 81 100 100 100 90
20 19 21 21 18 15 13 13 12 12 12 32 28 92 100 100 100 100 100 100 100 100 100 100 100 100 100 100 100 100 77 70 66 72 98 75 61 100 100 100 88 98 100 100 92
18 18 18 19 17 18 17 16 13 12 12 12 11 31 99 100 100 100 100 100 100 100 100 100 100 100 100 100 98 99 100 100 98 91 94 98 89 98 66 80 95 100 97 100 100
12 12 14 16 16 16 16 16 17 17 14 12 11 11 22 100 100 100 100 100 100 100 100 100 100 100 92 100 100 100 100 100 100 100 77 80 83 100 83 74 61 71 69 96 100
9 8 10 10 12 12 13 13 13 13 16 15 11 10 11 16 96 100 100 100 100 100 100 100 100 100 100 100 100 96 100 100 100 100 99 77 79 75 76 74 70 70 67 63 85
7 8 11 10 11 9 7 7 9 11 11 14 13 12 11 9 12 86 100 100 100 100 100 100 100 100 100 100 100 100 100 100 90 94 94 90 80 88 96 86 65 60 72 78 85
7 6 5 6 6 5 5 4 4 5 6 9 9 12 11 10 13 17 64 100 100 100 100 100 100 100 95 100 95 100 84 90 94 84 85 89 98 89 85 74 86 87 98 72 63

GFSSW_250_rhum_255.txt.gz
RH
96 100 96 85 66 78 98 74 48 75 97 78 69 52 61 62 98 100 100 92 79 88 87 88 90 85 62 56 73 83 75 80 100 84 100 100 37 21 39 35 25 96 36 26 23
100 99 100 100 96 75 66 75 94 76 78 95 97 87 55 42 50 75 92 100 100 100 100 97 100 95 90 86 76 92 100 99 99 97 94 97 56 31 49 53 27 44 58 64 24
100 100 100 100 100 100 99 94 77 78 91 71 67 60 95 89 75 44 56 79 87 95 100 100 100 100 100 97 97 93 100 99 94 100 96 100 71 61 85 76 50 26 90 90 33
100 100 100 100 100 100 100 100 98 100 72 86 83 100 97 90 100 72 49 57 54 100 100 74 73 90 100 100 100 100 100 100 100 100 100 97 92 80 100 100 74 50 43 100 84
100 100 99 99 99 100 100 100 100 100 100 100 88 85 76 94 95 100 99 63 51 66 100 72 71 50 59 96 100 100 100 100 100 100 100 100 78 74 100 100 100 87 52 74 86
91 100 100 100 96 95 100 100 100 100 100 100 100 96 86 66 77 82 95 100 91 44 55 87 100 100 58 45 83 73 70 97 100 100 100 99 95 97 100 96 99 93 76 98 33
93 96 100 100 100 100 96 95 100 100 100 100 100 100 100 100 90 99 75 65 94 100 70 74 100 100 62 43 40 53 55 44 74 100 100 100 100 100 100 100 100 82 89 99 65
100 90 74 70 95 96 99 95 82 80 95 98 100 100 100 100 100 92 84 77 52 64 79 51 54 73 79 35 50 60 52 48 35 78 95 100 100 100 100 100 100 100 98 100 93
98 100 100 88 82 91 95 86 95 93 90 85 90 92 100 100 100 100 100 94 70 58 47 68 86 60 58 100 99 100 100 100 75 58 74 78 100 100 100 100 100 100 100 100 100
88 75 93 100 100 92 83 85 99 86 83 75 71 81 82 91 100 100 100 100 100 98 72 64 57 54 62 70 55 46 91 100 100 58 73 94 90 79 100 100 100 100 100 94 100
57 52 82 82 58 80 62 64 73 77 67 88 82 92 75 91 79 70 89 94 62 72 97 99 72 84 100 62 68 63 70 100 99 99 69 52 81 65 100 100 100 100 100 100 100
56 51 62 44 44 43 49 48 60 55 57 69 76 59 69 63 86 95 72 67 66 46 84 99 66 86 69 65 54 44 79 64 91 54 51 48 48 62 62 98 100 100 100 100 100
99 74 80 65 66 55 60 63 47 54 41 57 76 63 72 67 84 97 88 96 76 60 64 71 100 100 83 82 66 56 53 74 99 100 85 73 64 76 62 82 100 100 100 100 100
100 91 83 96 97 81 70 57 55 52 46 46 53 53 86 67 64 95 73 86 93 73 74 63 97 100 93 94 85 76 64 53 52 83 71 62 84 68 64 47 64 100 100 100 89
83 99 100 100 100 100 98 70 58 100 64 41 46 53 67 85 65 82 100 93 88 100 92 74 85 99 95 99 96 78 75 66 60 56 59 62 56 84 62 51 47 56 99 100 100
77 93 94 96 86 77 75 88 74 63 50 54 84 78 91 94 97 100 100 100 98 100 93 84 99 96 99 90 96 100 91 95 99 87 64 82 92 84 95 58 70 49 47 90 100
96 95 89 59 57 55 61 62 48 36 58 60 52 59 72 91 100 99 100 100 98 100 100 96 100 100 100 100 98 75 83 94 89 85 98 100 93 75 88 94 100 80 78 71 100
98 97 97 98 100 97 79 76 67 61 62 66 54 61 54 63 75 100 100 100 100 100 100 99 92 99 100 99 100 100 99 100 86 100 100 100 100 100 100 99 100 99 89 66 95
34 65 76 81 100 100 100 100 100 100 100 87 74 59 63 48 64 68 61 90 93 100 94 100 95 100 100 92 97 100 99 92 100 100 99 94 95 100 100 100 100 100 100 91 79
15 13 13 30 76 78 70 92 100 100 100 100 100 98 100 87 57 61 66 53 62 89 100 100 100 100 100 100 100 97 100 100 100 100 100 88 98 97 100 100 100 100 100 99 99
19 17 18 16 14 13 12 12 12 14 40 52 100 100 100 100 99 90 71 77 78 88 93 95 97 97 100 100 100 100 100 100 100 100 85 98 100 100 100 100 100 100 100 100 100
27 25 24 18 16 15 15 16 15 16 13 13 14 44 99 100 100 100 100 100 100 88 72 72 68 78 84 93 100 100 100 100 99 88 100 100 86 100 100 100 100 100 100 100 100
27 24 22 23 21 20 18 19 18 17 17 17 15 14 12 13 15 99 100 100 100 100 90 96 81 58 70 99 96 76 80 94 100 100 100 100 79 100 99 98 100 100 100 100 100
24 24 24 24 24 23 22 20 19 18 17 16 15 15 15 14 12 13 57 100 100 100 100 99 78 71 58 62 97 91 86 85 98 100 100 100 94 98 100 99 97 100 100 100 100
28 30 30 28 30 25 22 19 19 19 16 16 15 15 15 14 14 13 16 19 18 46 100 100 100 100 92 88 95 100 97 84 84 100 100 96 100 100 100 100 100 96 100 100 100
34 34 30 27 25 25 26 24 20 18 16 16 16 16 14 13 13 14 14 15 15 16 18 80 100 100 100 100 100 100 100 100 84 63 68 80 84 94 100 100 100 78 100 100 100
32 31 26 28 22 18 19 17 16 15 16 15 14 13 12 12 11 10 11 12 16 20 22 22 20 21 35 96 100 100 80 67 91 88 79 62 62 95 100 100 100 100 100 100 100